Location: Brede
(50.9167°N, 0.6000°E)
Time: 10:33:00
(UTC+00:00)

Envisat - Visible Passes

Search period start: 28 October 2020 00:00
Search period end: 07 November 2020 00:00
Orbit: 764 x 766 km, 98.1° (Epoch: 28 October)

Date Brightness Start Highest point End Pass type
(mag) Time Alt. Az. Time Alt. Az. Time Alt. Az.
28 Oct 6.0 04:44:08 10° NE 04:47:27 17° E 04:50:44 10° SE visible
28 Oct 4.7 17:42:05 10° SSW 17:46:46 37° W 17:51:30 10° NNW visible
29 Oct 3.9 05:45:14 10° NNE 05:50:14 53° E 05:55:12 10° S visible
29 Oct 3.4 17:04:44 10° S 17:09:49 74° WSW 17:14:55 10° NNW visible
29 Oct 6.5 18:48:01 10° WSW 18:49:45 12° W 18:51:29 10° WNW visible
30 Oct 5.3 05:08:50 10° NE 05:13:10 27° E 05:17:28 10° SSE visible
30 Oct 5.6 18:08:24 10° SW 18:12:26 23° W 18:16:29 10° NW visible
31 Oct 6.3 04:33:18 10° NE 04:35:55 14° E 04:38:30 10° ESE visible
31 Oct 3.1 06:10:35 10° NNE 06:15:43 86° ESE 06:20:49 10° SSW visible
31 Oct 4.3 17:30:28 10° S 17:35:20 45° W 17:40:14 10° NNW visible
01 Nov 4.4 05:33:56 10° NNE 05:38:49 43° E 05:43:38 10° S visible
01 Nov 6.2 18:35:27 10° WSW 18:38:12 15° W 18:40:58 10° NW visible
02 Nov 5.6 04:57:43 10° NE 05:01:41 22° E 05:05:38 10° SE visible
02 Nov 5.2 17:56:35 10° SSW 18:00:57 28° W 18:05:20 10° NNW visible
03 Nov 6.4 04:22:56 10° ENE 04:24:21 11° E 04:25:47 10° E visible
03 Nov 3.4 05:59:14 10° NNE 06:04:20 71° ESE 06:09:24 10° S visible
03 Nov 3.9 17:18:55 10° S 17:23:54 56° W 17:28:55 10° NNW visible
04 Nov 4.8 05:22:40 10° NNE 05:27:21 36° E 05:32:00 10° SSE visible
04 Nov 6.0 18:23:15 10° SW 18:26:40 18° W 18:30:05 10° NW visible
05 Nov 5.9 04:46:40 10° NE 04:50:11 18° E 04:53:40 10° SE visible
05 Nov 4.8 17:44:52 10° SSW 17:49:29 34° W 17:54:08 10° NNW visible
06 Nov 3.8 05:47:53 10° NNE 05:52:55 58° E 05:57:55 10° S visible
06 Nov 3.4 17:07:26 10° S 17:12:29 69° WSW 17:17:35 10° NNW visible
06 Nov 6.5 18:51:23 10° W 18:52:30 11° W 18:53:36 10° WNW visible
